Вернуться в каталог

CZ-6A DEB

АктивенPO
NORAD 61112·DEBRIS·🇨🇳 China

Запущен Aug 6, 2024 с Taiyuan Satellite Launch Center

Loading…

Ближайшие Пролёты (ближайшие 24 часа)

TLE

СвежийSource: Space-Track

Эпоха: Sep 14, 2026, 06:51 UTC

1 61112U 24140PE  26257.28550954  .00002916  00000-0  63081-3 0  9991
2 61112  89.0285 262.9756 0060951 292.7384  66.7392 14.56888485109334

Отслеживайте CZ-6A DEB в реальном времени с AllMySat

Download on the App Store